Regional Weather Roundup
Issued by NWS Cleveland, OH

Home | Current Version | Previous Version | Graphics & Text | Print | Product List | Glossary On
Versions: 1 2 3 4 5 6 7 8 9 10 11 12 13 14 15 16 17 18 19 20 21 22 23 24 25 26 27 28 29 30 31 32 33 34 35 36 37 38 39 40 41 42 43 44 45 46 47 48 49 50
000
ASUS41 KCLE 212010
RWRCLE
OHIO REGIONAL WEATHER ROUNDUP
NATIONAL WEATHER SERVICE WILMINGTON, OH
400 PM EDT SAT OCT 21 2017

NOTE: "FAIR" INDICATES FEW OR NO CLOUDS BELOW 12,000 FEET WITH NO
SIGNIFICANT WEATHER AND/OR OBSTRUCTIONS TO VISIBILITY.

OHZ001>008-015>018-024>027-034-035-043-044-212100-
   NORTHWEST OHIO

CITY           SKY/WX    TMP DP  RH WIND       PRES   REMARKS
DEFIANCE       FAIR      74  50  42 S12       30.16F
FINDLAY        FAIR      76  50  40 S10       30.16F
TOLEDO EXPRESS FAIR      75  54  47 S5        30.15F
TOLEDO EXEC    FAIR      74  54  49 S10       30.18F
LIMA           FAIR      75  46  35 S12       30.18F
$$

OHZ009>014-019>023-028>033-038-089-212100-
   NORTHEAST OHIO

CITY           SKY/WX    TMP DP  RH WIND       PRES   REMARKS
CLE-HOPKINS    PTSUNNY   75  48  38 S7        30.23S
CLE-LAKEFRONT  FAIR      74  48  39 SE7       30.20F
CUY CO. ARPT   PTSUNNY   75  52  43 S9        30.23F
LORAIN-ELYRIA  FAIR      74  45  35 SW8       30.21F
ASHTABULA      FAIR      72  46  39 S9        30.24F
AKRON-CANTON   PTSUNNY   73  48  41 S7        30.25S
WOOSTER        FAIR      74  47  38 SE7       30.24S
MANSFIELD      FAIR      74  50  42 SE9       30.23S
YOUNGSTOWN     PTSUNNY   72  48  42 S8        30.25F
$$

OHZ042-051>053-060>062-070>072-077>081-212100-
  SOUTHWEST OHIO

CITY           SKY/WX    TMP DP  RH WIND       PRES   REMARKS
CINC-COVINGTON PTSUNNY   72  49  44 S8        30.22S
CINC-LUNKEN    FAIR      73  52  47 SW7       30.22F
HAMILTON       FAIR      75  49  39 VRB7      30.22S
DAYTON         PTSUNNY   71  49  45 S8        30.22R
WRIGHT-PAT AFB PTSUNNY   72  46  39 S8        30.21S
DAYTON GENERAL FAIR      72  47  40 SW7       30.21S
WILMINGTON     FAIR      70  49  47 SW8       30.22F HAZE
$$

OHZ036-037-039>041-045>050-054>059-063>069-073>076-082>088-212100-
  CENTRAL AND SOUTHEAST OHIO

CITY           SKY/WX    TMP DP  RH WIND       PRES   REMARKS
COLUMBUS       CLOUDY    73  55  53 S7        30.22S
OSU AIRPORT    FAIR      72  56  57 SE8       30.22S
BOLTON FIELD   SUNNY     73  46  38 SW5       30.23S
RICKENBACK AFB FAIR      72  54  53 S6        30.22S
NEWARK         FAIR      74  49  41 S8        30.23R
MARION         FAIR      74  48  39 S10       30.21S
LANCASTER      FAIR      73  52  47 S6        30.24S
ZANESVILLE     FAIR      73  52  47 S3        30.24S
NEW PHILLY     FAIR      73  51  46 S5        30.25S
$$




USA.gov is the U.S. government's official web portal to all federal, state and local government web resources and services.